WA8SIE Weather Reports


Display with metric or nautical units.
time (UTC)temp
F
wind
direction
speed
MPH
gust
MPH
rain 1hr
in
rain 24hr
in
rain mn
in
humidity
%
barometer
mb
20260902031511 76 181 0.0 0.0 0.00 0.00 0.00 97 1012.5
20260902031011 77 182 0.0 0.0 0.00 0.00 0.00 96 1012.6
20260902030011 77 181 0.0 0.0 0.00 0.00 0.00 96 1012.6
20260902025511 77 181 0.0 0.0 0.00 0.00 0.00 95 1012.6
20260902024013 77 181 0.0 0.0 0.00 0.00 0.00 95 1012.7
20260902023011 78 181 0.0 1.0 0.00 0.00 0.00 95 1012.7
20260902022511 78 181 0.0 2.0 0.00 0.00 0.00 94 1012.5
20260902022013 78 181 0.0 2.0 0.00 0.00 0.00 94 1012.5
20260902021511 78 181 0.0 1.0 0.00 0.00 0.00 94 1012.5
20260902021011 78 181 0.0 1.0 0.00 0.00 0.00 93 1012.5
20260902020511 78 181 0.0 0.0 0.00 0.00 0.00 93 1012.5
20260902020011 78 183 0.0 0.0 0.00 0.00 0.00 93 1012.5
20260902015511 78 184 0.0 0.0 0.00 0.00 0.00 93 1012.4
20260902015011 78 184 0.0 0.0 0.00 0.00 0.00 93 1012.4
20260902014510 79 185 0.0 0.0 0.00 0.00 0.00 92 1012.4
20260902014011 79 184 0.0 0.0 0.00 0.00 0.00 92 1012.4
20260902013511 79 184 0.0 0.0 0.00 0.00 0.00 92 1012.4
20260902013011 79 184 0.0 0.0 0.00 0.00 0.00 91 1012.4
20260902012511 79 184 0.0 0.0 0.00 0.00 0.00 91 1012.3
20260902012014 0 0.0 0.0 0.31 0.00 0.00
20260902011512 0 0.0 0.0 0.31 0.00 0.00
20260902011012 0 0.0 0.0 0.31 0.00 0.00
20260902010511 0 0.0 0.0 0.31 0.00 0.00
20260902005010 0 0.0 0.0 0.31 0.00 0.00
20260902004511 0 0.0 0.0 0.31 0.00 0.00
20260902004011 0 0.0 0.0 0.31 0.00 0.00
20260902002510 0 0.0 0.0 0.31 0.00 0.00
20260902002010 0 0.0 0.0 0.31 0.00 0.00
20260902001511 0 0.0 0.0 0.31 0.00 0.00
20260902001011 0 0.0 0.0 0.31 0.00 0.00
20260902000010 0 0.0 0.0 0.31 0.00 0.00
20260901235512 0 0.0 0.0 0.31 0.00 0.00
20260901235010 0 0.0 0.0 0.31 0.00 0.00
20260901234510 0 0.0 0.0 0.31 0.00 0.00
20260901234011 0 0.0 0.0 0.31 0.00 0.00
20260901233510 0 0.0 0.0 0.31 0.00 0.00
20260901231510 0 0.0 0.0 0.31 0.00 0.00
20260901230510 0 0.0 0.0 0.31 0.00 0.00
20260901230010 0 0.0 0.0 0.31 0.00 0.00
20260901225511 87 184 0.0 3.0 0.00 0.00 0.00 68 1011.6
20260901225011 88 185 0.0 0.0 0.00 0.00 0.00 68 1011.6
20260901224011 88 184 0.0 5.0 0.00 0.00 0.00 64 1011.6
20260901223511 89 184 0.0 6.0 0.00 0.00 0.00 62 1011.6
20260901222011 89 203 0.0 6.0 0.00 0.00 0.00 61 1011.8
20260901221511 89 203 0.0 6.0 0.00 0.00 0.00 61 1011.8
20260901221011 90 197 0.0 4.0 0.00 0.00 0.00 60 1011.8
20260901220511 90 204 0.0 4.0 0.00 0.00 0.00 61 1011.8
20260901220011 90 200 0.0 7.0 0.00 0.00 0.00 58 1011.8
20260901215511 90 200 2.0 7.0 0.00 0.00 0.00 58 1011.9
20260901214511 90 172 0.0 10.0 0.00 0.00 0.00 57 1011.9
20260901214013 90 195 0.0 7.0 0.00 0.00 0.00 58 1012.1
20260901213513 90 195 0.0 7.0 0.00 0.00 0.00 56 1012.1
20260901213011 90 198 0.0 3.0 0.00 0.00 0.00 55 1012.1
20260901212511 90 198 0.0 4.0 0.00 0.00 0.00 56 1012.4
20260901212012 90 198 0.0 4.0 0.00 0.00 0.00 54 1012.4
20260901211511 90 200 0.0 5.0 0.00 0.00 0.00 55 1012.4
20260901211011 90 200 0.0 6.0 0.00 0.00 0.00 56 1012.4
20260901210512 90 179 0.0 6.0 0.00 0.00 0.00 54 1012.4
20260901210013 90 190 0.0 4.0 0.00 0.00 0.00 56 1012.4
20260901205511 90 201 0.0 4.0 0.00 0.00 0.00 55 1012.3
20260901205011 91 201 0.0 4.0 0.00 0.00 0.00 54 1012.3
20260901204511 91 203 0.0 5.0 0.00 0.00 0.00 56 1012.3
20260901204011 90 195 0.0 5.0 0.00 0.00 0.00 55 1012.4
20260901203511 90 195 5.0 4.0 0.00 0.00 0.00 55 1012.4
20260901203011 91 191 0.0 5.0 0.00 0.00 0.00 56 1012.4
20260901202513 91 191 0.0 5.0 0.00 0.00 0.00 56 1012.7
20260901201511 90 190 0.0 4.0 0.00 0.00 0.00 56 1012.7
20260901201011 90 191 3.0 3.0 0.00 0.00 0.00 58 1012.9
20260901200511 89 191 0.0 3.0 0.00 0.00 0.00 60 1012.9
20260901195511 89 310 0.0 0.0 0.00 0.00 0.00 66 1012.9
20260901195011 89 309 0.0 0.0 0.00 0.00 0.00 62 1012.9
20260901194011 90 309 0.0 0.0 0.00 0.00 0.00 61 1012.9
20260901193511 91 309 0.0 0.0 0.00 0.00 0.00 59 1012.9
20260901193011 91 309 0.0 0.0 0.00 0.00 0.00 55 1012.9
20260901192511 91 309 0.0 4.0 0.00 0.00 0.00 56 1013.1
20260901192011 91 306 0.0 4.0 0.00 0.00 0.00 55 1013.1
20260901191511 91 296 3.0 4.0 0.00 0.00 0.00 53 1013.1
20260901191011 91 298 0.0 4.0 0.00 0.00 0.00 54 1013.1
20260901190510 91 299 0.0 0.0 0.00 0.00 0.00 55 1013.1
20260901190014 91 297 0.0 3.0 0.00 0.00 0.00 55 1013.1
20260901185511 92 2 0.0 7.0 0.00 0.00 0.00 52 1012.9
20260901184511 92 315 6.0 9.0 0.00 0.00 0.00 52 1012.9
20260901184011 92 326 0.0 6.0 0.00 0.00 0.00 54 1013.2
20260901183512 92 327 0.0 6.0 0.00 0.00 0.00 51 1013.2
20260901182012 93 3.0 5.0 0.00 0.00 0.00 51 1013.4
20260901181011 93 356 4.0 5.0 0.00 0.00 0.00 54 1013.8
20260901180512 93 309 0.0 4.0 0.00 0.00 0.00 51 1013.8
20260901180012 92 235 0.0 1.0 0.00 0.00 0.00 55 1013.8
20260901175510 92 301 0.0 5.0 0.00 0.00 0.00 55 1013.9
20260901175011 92 51 0.0 11.0 0.00 0.00 0.00 56 1013.9
20260901174511 92 46 0.0 11.0 0.00 0.00 0.00 55 1013.9
20260901174010 91 178 4.0 6.0 0.00 0.00 0.00 53 1013.9
20260901173511 91 134 0.0 6.0 0.00 0.00 0.00 56 1013.9
20260901173011 92 195 0.0 5.0 0.00 0.00 0.00 56 1013.9
20260901172511 92 276 0.0 5.0 0.00 0.00 0.00 58 1014.1
20260901172011 91 288 0.0 5.0 0.00 0.00 0.00 59 1014.1
20260901171512 91 321 0.0 4.0 0.00 0.00 0.00 57 1014.1
20260901171010 90 195 0.0 4.0 0.00 0.00 0.00 58 1014.4
20260901170510 90 222 0.0 6.0 0.00 0.00 0.00 59 1014.4
20260901170011 91 181 0.0 6.0 0.00 0.00 0.00 59 1014.4
20260901165511 90 300 3.0 3.0 0.00 0.00 0.00 61 1014.3
20260901165010 90 247 0.0 7.0 0.00 0.00 0.00 59 1014.3
20260901164512 90 196 0.0 9.0 0.00 0.00 0.00 61 1014.3
20260901164012 90 296 0.0 9.0 0.00 0.00 0.00 59 1014.3
20260901163510 90 181 0.0 5.0 0.00 0.00 0.00 60 1014.3
20260901162511 89 274 0.0 4.0 0.00 0.00 0.00 62 1014.2
20260901162010 89 176 0.0 4.0 0.00 0.00 0.00 63 1014.2
20260901161012 88 186 2.0 5.0 0.00 0.00 0.00 63 1014.3
20260901160512 88 186 0.0 6.0 0.00 0.00 0.00 65 1014.3
20260901160010 88 206 0.0 6.0 0.00 0.00 0.00 65 1014.3
20260901155511 88 200 0.0 0.0 0.00 0.00 0.00 65 1014.4
20260901155010 88 200 0.0 1.0 0.00 0.00 0.00 65 1014.4
20260901154511 88 307 0.0 5.0 0.00 0.00 0.00 67 1014.4
20260901154012 87 41 0.0 5.0 0.00 0.00 0.00 66 1014.4
20260901153510 87 307 1.0 4.0 0.00 0.00 0.00 68 1014.4
20260901152010 86 268 0.0 3.0 0.00 0.00 0.00 69 1014.5
20260901151010 86 330 0.0 4.0 0.00 0.00 0.00 70 1014.5
20260901150010 86 260 3.0 3.0 0.00 0.00 0.00 72 1014.5
20260901145510 85 210 0.0 4.0 0.00 0.00 0.00 71 1014.5
20260901145012 85 224 0.0 4.0 0.00 0.00 0.00 71 1014.5
20260901144510 85 343 0.0 2.0 0.00 0.00 0.00 72 1014.5
20260901143510 84 332 0.0 0.0 0.00 0.00 0.00 74 1014.6
20260901143012 84 331 0.0 2.0 0.00 0.00 0.00 74 1014.6
20260901142510 83 332 0.0 3.0 0.00 0.00 0.00 75 1014.6
20260901142010 83 332 0.0 4.0 0.00 0.00 0.00 76 1014.6
20260901141011 82 197 0.0 0.0 0.00 0.00 0.00 77 1014.6
20260901140511 82 197 0.0 0.0 0.00 0.00 0.00 78 1014.6
20260901140011 82 198 0.0 0.0 0.00 0.00 0.00 78 1014.6
20260901135511 82 198 0.0 0.0 0.00 0.00 0.00 78 1014.7
20260901135011 81 197 0.0 0.0 0.00 0.00 0.00 79 1014.7
20260901134511 81 197 0.0 0.0 0.00 0.00 0.00 81 1014.7
20260901134013 81 197 0.0 0.0 0.00 0.00 0.00 82 1014.7
20260901133511 80 197 0.0 0.0 0.00 0.00 0.00 83 1014.7
20260901133011 80 198 0.0 0.0 0.00 0.00 0.00 84 1014.7
20260901132511 79 198 0.0 0.0 0.00 0.00 0.00 85 1014.9
20260901132011 79 198 0.0 0.0 0.00 0.00 0.00 88 1014.9
20260901130511 77 198 0.0 0.0 0.00 0.00 0.00 93 1014.9
20260901130011 76 198 0.0 0.0 0.00 0.00 0.00 95 1014.9
20260901125011 76 198 0.0 0.0 0.00 0.00 0.00 99 1015.0
20260901124511 75 198 0.0 0.0 0.00 0.00 0.00 100 1015.0
20260901123511 74 198 0.0 3.0 0.00 0.00 0.00 100 1015.1
20260901123011 74 198 0.0 3.0 0.00 0.00 0.00 100 1015.1
20260901122511 74 198 0.0 3.0 0.00 0.00 0.00 100 1015.1
20260901122011 73 198 2.0 3.0 0.00 0.00 0.00 100 1015.1
20260901121511 73 198 2.0 3.0 0.00 0.00 0.00 100 1015.1
20260901121011 73 198 0.0 0.0 0.00 0.00 0.00 100 1015.0
20260901120511 73 198 0.0 0.0 0.00 0.00 0.00 100 1015.0
20260901120011 72 198 0.0 0.0 0.00 0.00 0.00 100 1015.0
20260901115511 72 198 0.0 0.0 0.00 0.00 0.00 100 1014.7
20260901115011 72 198 0.0 0.0 0.00 0.00 0.00 100 1014.7
20260901114511 72 198 0.0 0.0 0.00 0.00 0.00 100 1014.7
20260901114012 72 198 0.0 0.0 0.00 0.00 0.00 100 1014.5
20260901113511 72 199 0.0 0.0 0.00 0.00 0.00 100 1014.5
20260901113011 72 198 0.0 0.0 0.00 0.00 0.00 100 1014.5
20260901112011 72 198 0.0 0.0 0.00 0.00 0.00 100 1014.5
20260901111511 72 198 0.0 0.0 0.00 0.00 0.00 100 1014.5
20260901111011 71 198 0.0 0.0 0.00 0.00 0.00 100 1014.3
20260901110512 71 198 0.0 0.0 0.00 0.00 0.00 100 1014.3
20260901105511 72 198 0.0 0.0 0.00 0.00 0.00 100 1014.1
20260901105011 72 198 0.0 0.0 0.00 0.00 0.00 100 1014.1
20260901104511 72 198 0.0 0.0 0.00 0.00 0.00 100 1014.1
20260901103511 72 198 0.0 0.0 0.00 0.00 0.00 100 1013.9
20260901103011 72 198 0.0 0.0 0.00 0.00 0.00 100 1013.9
20260901102511 72 198 0.0 0.0 0.00 0.00 0.00 100 1013.8
20260901102011 72 198 0.0 0.0 0.00 0.00 0.00 100 1013.8
20260901101511 72 199 0.0 0.0 0.00 0.00 0.00 100 1013.8
20260901101011 72 198 0.0 0.0 0.00 0.00 0.00 100 1013.6
20260901100012 72 198 0.0 0.0 0.00 0.00 0.00 100 1013.6
20260901095511 72 198 0.0 0.0 0.00 0.00 0.00 100 1013.5
20260901095011 72 198 0.0 0.0 0.00 0.00 0.00 100 1013.5
20260901094512 72 198 0.0 0.0 0.00 0.00 0.00 100 1013.5
20260901094012 72 198 0.0 0.0 0.00 0.00 0.00 100 1013.5
20260901093511 72 198 0.0 0.0 0.00 0.00 0.00 100 1013.5
20260901093011 72 198 0.0 0.0 0.00 0.00 0.00 100 1013.5
20260901092511 72 198 0.0 0.0 0.00 0.00 0.00 100 1013.5
20260901091012 72 198 0.0 0.0 0.00 0.00 0.00 100 1013.2
20260901090511 72 198 0.0 0.0 0.00 0.00 0.00 100 1013.2
20260901090010 72 198 0.0 0.0 0.00 0.00 0.00 100 1013.2
20260901085510 72 198 0.0 0.0 0.00 0.00 0.00 100 1013.3
20260901085011 72 198 0.0 0.0 0.00 0.00 0.00 100 1013.3
20260901084511 73 198 0.0 0.0 0.00 0.00 0.00 100 1013.3
20260901084011 73 198 0.0 0.0 0.00 0.00 0.00 100 1013.1
20260901083510 73 198 0.0 0.0 0.00 0.00 0.00 100 1013.1
20260901082011 73 198 0.0 0.0 0.00 0.00 0.00 100 1013.1
20260901081512 73 198 0.0 0.0 0.00 0.00 0.00 100 1013.1
20260901081010 73 198 0.0 0.0 0.00 0.00 0.00 100 1013.2
20260901080511 73 198 0.0 0.0 0.00 0.00 0.00 100 1013.2
20260901080010 73 198 0.0 0.0 0.00 0.00 0.00 100 1013.2
20260901075511 73 198 0.0 0.0 0.00 0.00 0.00 100 1013.1
20260901075011 73 198 0.0 0.0 0.00 0.00 0.00 100 1013.1
20260901074511 73 198 0.0 0.0 0.00 0.00 0.00 100 1013.1
20260901074012 73 198 0.0 0.0 0.00 0.00 0.00 100 1012.9
20260901073511 73 198 0.0 0.0 0.00 0.00 0.00 100 1012.9
20260901073010 74 198 0.0 0.0 0.00 0.00 0.00 100 1012.9
20260901072510 74 198 0.0 0.0 0.00 0.00 0.00 100 1013.0
20260901072011 74 198 0.0 0.0 0.00 0.00 0.00 100 1013.0
20260901071511 74 198 0.0 0.0 0.00 0.00 0.00 100 1013.0
20260901071010 74 198 0.0 0.0 0.00 0.00 0.00 100 1013.0
20260901070510 74 198 0.0 0.0 0.00 0.00 0.00 100 1013.0
20260901065511 74 198 0.0 0.0 0.00 0.00 0.00 100 1012.9
20260901065010 74 198 0.0 0.0 0.00 0.00 0.00 100 1012.9
20260901064510 74 199 0.0 0.0 0.00 0.00 0.00 100 1012.9
20260901064010 74 198 0.0 0.0 0.00 0.00 0.00 100 1012.9
20260901063511 74 198 0.0 0.0 0.00 0.00 0.00 100 1012.9
20260901063010 74 198 0.0 0.0 0.00 0.00 0.00 100 1012.9
20260901062510 74 198 0.0 0.0 0.00 0.00 0.00 100 1013.0
20260901062010 75 198 0.0 0.0 0.00 0.00 0.00 100 1013.0
20260901061511 75 198 0.0 0.0 0.00 0.00 0.00 100 1013.0
20260901061010 75 198 0.0 0.0 0.00 0.00 0.00 100 1013.0
20260901060510 75 198 0.0 0.0 0.00 0.00 0.00 100 1013.0
20260901060012 75 198 0.0 0.0 0.00 0.00 0.00 100 1013.0
20260901055510 75 198 0.0 0.0 0.00 0.00 0.00 100 1013.2
20260901055010 75 198 0.0 0.0 0.00 0.00 0.00 100 1013.2
20260901054510 75 198 0.0 0.0 0.00 0.00 0.00 100 1013.2
20260901054010 75 198 0.0 0.0 0.00 0.00 0.00 100 1013.4
20260901053510 75 198 0.0 0.0 0.00 0.00 0.00 100 1013.4
20260901053010 75 198 0.0 0.0 0.00 0.00 0.00 100 1013.4
20260901052510 75 198 0.0 0.0 0.00 0.00 0.00 100 1013.3
20260901052010 75 198 0.0 0.0 0.00 0.00 0.00 100 1013.3
20260901051510 76 198 0.0 0.0 0.00 0.00 0.00 100 1013.3
20260901051010 76 198 0.0 0.0 0.00 0.00 0.00 100 1013.3
20260901050511 76 198 0.0 0.0 0.00 0.00 0.00 100 1013.3
20260901050011 76 198 0.0 0.0 0.00 0.00 0.00 100 1013.3
20260901045511 76 198 0.0 0.0 0.00 0.00 0.00 100 1013.3
20260901045011 76 198 0.0 0.0 0.00 0.00 0.00 99 1013.3
20260901044511 76 198 0.0 0.0 0.00 0.00 0.00 99 1013.3
20260901044011 76 198 0.0 0.0 0.00 0.00 0.00 99 1013.5
20260901043511 76 198 0.0 0.0 0.00 0.00 0.00 99 1013.5
20260901042011 77 198 0.0 0.0 0.00 0.00 0.00 99 1013.6
20260901041511 77 198 0.0 0.0 0.00 0.00 0.00 98 1013.6
20260901041011 77 198 0.0 0.0 0.00 0.00 0.00 98 1013.9
20260901040511 77 198 0.0 0.0 0.00 0.00 0.00 98 1013.9
20260901040011 77 198 0.0 0.0 0.00 0.00 0.00 98 1013.9
20260901035511 77 198 0.0 0.0 0.00 0.00 0.00 97 1013.7
20260901035011 77 198 0.0 0.0 0.00 0.00 0.00 97 1013.7
20260901034011 78 198 0.0 0.0 0.00 0.00 0.00 97 1013.7
20260901033511 78 198 0.0 0.0 0.00 0.00 0.00 97 1013.7
20260901033011 78 198 0.0 0.0 0.00 0.00 0.00 97 1013.7
20260901032511 78 198 0.0 0.0 0.00 0.00 0.00 97 1013.7
20260901032011 78 198 0.0 0.0 0.00 0.00 0.00 97 1013.7